Home > Weather > Manassas > Past weeks

Flag for USA Past Weather in Manassas, Virginia, USA — Yesterday and Last 2 Weeks

Now
73 °F

Low clouds.


Feels Like: 70 °F
Forecast: 71 / 89 °F
Wind: No wind

Location: Manassas Municipal

Current Time: Jul 30, 2016 at 11:33:04 PM

Latest Report: Jul 30, 2016 at 11:15 PM


Visibility: 10 mi

Pressure: 29.98 "Hg

Humidity: 94%

Dew Point: 72 °F

Location of ManassasLocation

Past Weather in Manassas — Graph

°F

Manassas Temperature Yesterday

Maximum temperature yesterday: 90 °F (at 4:45 PM)
Minimum temperature yesterday: 72 °F (at 5:55 AM)
Average temperature yesterday: 77 °F

High & Low Weather Summary for the Past Weeks

 TemperatureHumidityPressure
High99 °F (Jul 25, 2:45 PM)100% (Jul 15, 11:35 PM)30.22 "Hg (Jul 15, 11:35 PM)
Low61 °F (Jul 21, 5:35 AM)34% (Jul 24, 2:45 PM)29.80 "Hg (Jul 28, 3:45 PM)
Average77 °F85%30.01 "Hg
* Reported Jul 15 10:35 PM — Jul 30 10:35 PM, Manassas, Weather by CustomWeather, © 2016

Note: Actual official high and low records may vary slightly from our data, if they occured in-between our weather recording intervals... More about our weather records

Advertising

Manassas Weather History for the Previous 24 Hours

Scroll right to see more
 ConditionsComfort  
Time TempWeatherWind HumidityBarometerVisibility
10:35 PM
Sat, Jul 30
73 °FLow clouds.5 mph94%29.98 "Hg10 mi
9:45 PM73 °FOvercast.No wind100%29.97 "Hg10 mi
8:45 PM73 °FLow clouds.5 mph94%29.98 "Hg10 mi
6:45 PM72 °FBroken clouds.8 mph94%29.95 "Hg3 mi
6:30 PM73 °FOvercast.10 mph94%29.95 "Hg10 mi
5:45 PM82 °FBroken clouds.13 mph79%29.92 "Hg10 mi
4:50 PM84 °FPartly sunny.10 mph74%29.90 "Hg10 mi
3:55 PM84 °FSunny.14 mph74%29.91 "Hg10 mi
2:45 PM86 °FPartly sunny.13 mph66%29.93 "Hg10 mi
1:58 PM84 °FPartly sunny.14 mph74%29.96 "Hg10 mi
12:50 PM82 °FScattered clouds.10 mph74%29.98 "Hg10 mi
10:45 AM84 °FCloudy.10 mph70%29.99 "Hg10 mi
9:45 AM81 °FPartly sunny.6 mph84%29.98 "Hg10 mi
8:45 AM77 °FPartly sunny.5 mph94%29.98 "Hg10 mi
7:45 AM75 °FPartly sunny.3 mph100%29.98 "Hg10 mi
6:45 AM73 °FClear.3 mph100%29.96 "Hg10 mi
6:30 AM73 °FClear.No wind94%29.96 "Hg10 mi
6:15 AM73 °FClear.No wind100%29.95 "Hg10 mi
5:55 AM73 °FPassing clouds.3 mph100%29.94 "Hg10 mi
5:35 AM73 °FClear.No wind100%29.94 "Hg10 mi
5:15 AM72 °FClear.No wind100%29.94 "Hg10 mi
4:55 AM72 °FClear.No wind100%29.94 "Hg8 mi
4:35 AM72 °FClear.No wind100%29.93 "Hg7 mi
4:15 AM73 °FClear.No wind100%29.93 "Hg10 mi
3:55 AM73 °FClear.No wind100%29.93 "Hg10 mi
3:35 AM73 °FClear.No wind100%29.92 "Hg10 mi
3:15 AM73 °FClear.No wind100%29.93 "Hg10 mi
2:55 AM72 °FClear.No wind100%29.93 "Hg10 mi
2:35 AM72 °FClear.5 mph100%29.94 "Hg8 mi
2:15 AM72 °FClear.3 mph100%29.94 "Hg8 mi
1:55 AM72 °FClear.No wind100%29.95 "Hg9 mi
1:35 AM73 °FClear.No wind100%29.95 "Hg9 mi
1:15 AM73 °FClear.No wind94%29.95 "Hg10 mi
12:55 AM73 °FClear.No wind100%29.95 "Hg10 mi
12:35 AM73 °FClear.No wind100%29.95 "Hg10 mi
12:15 AM73 °FClear.No wind100%29.94 "Hg10 mi
11:55 PM
Fri, Jul 29
73 °FClear.No wind100%29.94 "Hg10 mi
11:35 PM73 °FClear.No wind100%29.94 "Hg10 mi
11:15 PM73 °FClear.No wind100%29.95 "Hg10 mi
Weather by CustomWeather, © 2016

See weather overviewHow to use our weather pages